Location: Newark
(13.8117°N, 3.6025°W)
Time: 12:23:31
(UTC+00:00)

Vanguard 1 - All Passes

Search period start: 21 August 2019 00:00
Search period end: 31 August 2019 00:00
Orbit: 655 x 3829 km, 34.2° (Epoch: 20 August)

Date Brightness Start Highest point End Pass type
(mag) Time Alt. Az. Time Alt. Az. Time Alt. Az.
21 Aug - 06:09:09 10° SSW 06:19:40 25° SSE 06:26:28 10° ESE daylight
21 Aug - 08:32:30 10° SW 08:42:20 88° SSE 08:47:54 10° ENE daylight
21 Aug - 10:59:33 10° WNW 11:02:47 15° NNW 11:05:34 10° N daylight
21 Aug - 15:43:03 10° NNW 15:47:53 27° NNE 15:55:08 10° E daylight
21 Aug - 18:01:27 10° WNW 18:09:04 78° SW 18:23:46 10° SE daylight
21 Aug - 20:23:47 10° W 20:33:30 28° SSW 20:48:25 10° SSE visible
22 Aug - 04:10:29 10° S 04:15:15 11° SSE 04:19:24 10° SE visible
22 Aug - 06:29:27 10° SSW 06:41:29 35° SSE 06:48:33 10° E daylight
22 Aug - 08:54:13 10° WSW 09:03:22 61° NW 09:08:43 10° NE daylight
22 Aug - 11:23:48 10° NNW 11:24:10 10° NNW 11:24:31 10° NNW daylight
22 Aug - 16:03:33 10° NW 16:08:58 38° NE 16:17:51 10° E daylight
22 Aug - 18:22:37 10° WNW 18:30:27 57° SSW 18:45:08 10° SE daylight
22 Aug - 20:46:50 10° WSW 20:55:47 21° SSW 21:08:18 10° SSE visible
23 Aug - 04:28:16 10° S 04:37:55 17° SSE 04:45:09 10° ESE visible
23 Aug - 06:50:13 10° SW 07:03:05 49° SSE 07:10:09 10° ENE daylight
23 Aug - 09:16:20 10° WSW 09:24:20 40° NW 09:29:22 10° NE daylight
23 Aug - 14:08:14 10° NNE 14:08:57 10° NNE 14:09:41 10° NNE daylight
23 Aug - 16:24:11 10° NW 16:29:58 56° NE 16:40:10 10° ESE daylight
23 Aug - 18:44:04 10° W 18:52:02 42° SSW 19:06:07 10° SE visible
23 Aug - 21:11:14 10° SW 21:18:23 15° SSW 21:27:21 10° S visible
24 Aug - 04:47:44 10° SSW 05:00:15 23° SSE 05:08:39 10° ESE visible
24 Aug - 07:11:24 10° SW 07:24:28 69° SSE 07:31:23 10° ENE daylight
24 Aug - 09:38:51 10° W 09:45:22 27° NNW 09:49:51 10° NNE daylight
24 Aug - 14:27:26 10° N 14:30:21 15° NNE 14:33:50 10° ENE daylight
24 Aug - 16:44:56 10° NW 16:51:00 82° NE 17:02:06 10° ESE daylight
24 Aug - 19:05:56 10° W 19:13:49 30° SSW 19:26:40 10° SSE visible
25 Aug - 02:50:08 10° S 02:54:05 11° SSE 02:57:44 10° SSE visible
25 Aug - 05:07:53 10° SSW 05:22:19 32° SSE 05:31:09 10° E visible
25 Aug - 07:32:57 10° WSW 07:45:41 86° NW 07:52:23 10° NE daylight
25 Aug - 10:01:47 10° WNW 10:06:31 18° NNW 10:10:10 10° NNE daylight
25 Aug - 14:47:37 10° NNW 14:51:33 23° NNE 14:56:48 10° E daylight
25 Aug - 17:05:55 10° WNW 17:12:09 70° SSW 17:23:38 10° SE daylight
25 Aug - 19:28:25 10° WSW 19:35:49 22° SSW 19:46:45 10° SSE visible
26 Aug - 03:06:53 10° S 03:17:12 16° SSE 03:25:28 10° SE visible
26 Aug - 05:28:29 10° SW 05:44:10 43° SSE 05:53:04 10° E visible
26 Aug - 07:54:55 10° WSW 08:06:46 62° NW 08:13:12 10° NE daylight
26 Aug - 10:25:13 10° NW 10:27:52 13° NNW 10:30:11 10° N daylight
26 Aug - 15:08:02 10° NNW 15:12:35 35° NNE 15:19:18 10° E daylight
26 Aug - 17:27:08 10° WNW 17:33:28 48° SSW 17:44:46 10° SE daylight
26 Aug - 19:51:58 10° SW 19:58:04 15° SSW 20:06:02 10° S visible
27 Aug - 03:26:05 10° SSW 03:39:53 22° SSE 03:49:54 10° ESE visible
27 Aug - 05:49:28 10° SW 06:05:49 58° SSE 06:14:34 10° ENE daylight
27 Aug - 08:17:16 10° WSW 08:27:48 43° NW 08:33:52 10° NE daylight
27 Aug - 15:28:39 10° NW 15:33:34 55° NE 15:41:23 10° ESE daylight
27 Aug - 17:48:42 10° W 17:55:00 33° SSW 18:05:29 10° SSE daylight
27 Aug - 20:19:04 10° SSW 20:20:38 10° SSW 20:22:15 10° SSW visible
28 Aug - 03:46:00 10° SSW 04:02:14 29° SSE 04:13:01 10° E visible
28 Aug - 06:10:50 10° SW 06:27:16 76° SE 06:35:46 10° ENE daylight
28 Aug - 08:40:00 10° W 08:48:53 31° NNW 08:54:26 10° NNE daylight
28 Aug - 13:31:54 10° N 13:34:07 13° NNE 13:36:31 10° NE daylight
28 Aug - 15:49:26 10° NW 15:54:33 88° NNE 16:03:04 10° ESE daylight
28 Aug - 18:10:48 10° WSW 18:16:45 23° SSW 18:25:42 10° SSE daylight
29 Aug - 01:46:22 10° S 01:55:32 13° SSE 02:03:38 10° SE visible
29 Aug - 04:06:23 10° SSW 04:24:19 38° SSE 04:35:23 10° E visible
29 Aug - 06:32:35 10° WSW 06:48:32 83° NW 06:56:45 10° NE daylight
29 Aug - 09:03:06 10° WNW 09:10:06 22° NNW 09:14:55 10° NNE daylight
29 Aug - 13:51:57 10° NNW 13:55:23 21° NNE 13:59:22 10° ENE daylight
29 Aug - 16:10:28 10° WNW 16:15:40 59° SSW 16:24:21 10° SE daylight
29 Aug - 18:33:48 10° WSW 18:38:40 16° SSW 18:45:09 10° S visible
30 Aug - 02:04:52 10° S 02:18:34 19° SSE 02:29:41 10° ESE visible
30 Aug - 04:27:09 10° SW 04:46:12 50° SSE 04:57:12 10° ENE visible
30 Aug - 06:54:44 10° WSW 07:09:42 63° NW 07:17:35 10° NE daylight
30 Aug - 09:26:27 10° WNW 09:31:30 16° NNW 09:35:20 10° NNE daylight
30 Aug - 14:12:22 10° NNW 14:16:27 33° NNE 14:21:39 10° E daylight
30 Aug - 16:31:49 10° W 16:36:57 37° SSW 16:45:12 10° SE daylight
